User: anonymous
Location: Deer Lodge Site
(39.6809°N, 119.9392°W)
Time: 18:49:13
(UTC-07:00)
Language:

CZ-4C R/B - Orbit

View from above orbital plane
View from above orbital plane
View from above satellite
View from above satellite

Ground track
Ground track

The orbit data is extracted from the following two-line orbital elements,

1 36416U 10009D   14243.08843239 -.00000062  00000-0  29543-4 0  7401
2 36416 063.4485 119.6538 0287232 000.2549 359.8585 13.69422412224532
Epoch (UTC): 31 August 2014 02:07:20
Eccentricity: 0.0287232
inclination: 63.4485°
perigee height: 789 km
apogee height: 1213 km
right ascension of ascending node: 119.6538°
argument of perigee: 0.2549°
revolutions per day: 13.69422412
mean anomaly at epoch: 359.8585°
orbit number at epoch: 22453

The dashed part of the orbit path shows where the satellite is in the earth's shadow,  

DLR